Regional Weather Roundup
Issued by NWS Wakefield, VA

Home | Current Version | Previous Version | Graphics & Text | Print | Product List | Glossary On
Versions: 1 2 3 4 5 6 7 8 9 10 11 12 13 14 15 16 17 18 19 20 21 22 23 24 25 26 27
000
ASUS41 KAKQ 162210
RWRAKQ

REGIONAL WEATHER ROUNDUP
NATIONAL WEATHER SERVICE WAKEFIELD VA
600 PM EDT WED APR 16 2014

Note: "fair" indicates few or no clouds below 12,000 feet with no
significant weather and/or obstructions to visibility. * = Denotes
station may not report precipitation (e.g., rain,snow,etc.),
thunder or fog.

VAZ042-051-052>054-056-162300-
NORTHERN VIRGINIA

CITY           SKY/WX    TMP DP  RH WIND       PRES   REMARKS
WASH NATIONAL  MOSUNNY   50  16  25 N9G20     30.45R
DULLES         MOSUNNY   47  15  27 N9        30.44R
FORT BELVOIR   SUNNY     50  13  23 VRB5      30.45R
QUANTICO       SUNNY     50  17  27 E12       30.45R
FREDERICKSBRG* SUNNY     52  18  25 NE5       30.43R
STAFFORD*      SUNNY     51  19  29 N7        30.48R
WARRENTON      SUNNY     49  26  40 N7        30.44R
CULPEPER*      SUNNY     50   9  18 N8        30.45R
MANASSAS*      SUNNY     48  18  29 N7        30.44S
LEESBURG*      SUNNY     46  23  39 NE7       30.45R
WINCHESTER     SUNNY     46  18  31 E8        30.43R
$$

VAZ048-049-060>072-079>083-162300-
CENTRAL AND SOUTH CENTRAL VIRGINIA...AND NORTH CENTRAL NORTH CAROLINA

CITY           SKY/WX    TMP DP  RH WIND       PRES   REMARKS
RICHMOND       SUNNY     52  16  24 NE8       30.41R
CHESTERFIELD*  CLEAR     52  16  24 N8        30.42R
HANOVER        SUNNY     51  16  24 VRB5      30.43R
TAPPAHANNOCK*  SUNNY     51  10  19 NE9       30.42S
CHARLOTTSVILLE SUNNY     50  17  27 E10       30.40R
ORANGE*        SUNNY     48  19  32 N8        30.44S
LOUISA*        SUNNY     50  16  25 N8        30.40S
FARMVILLE*     SUNNY     52  18  25 N7        30.38R
SOUTH HILL*    SUNNY     54  21  28 N6        30.43R
ROANOKE RAPIDS CLEAR     54  23  30 NE10      30.38R
RALEIGH        SUNNY     54  25  32 E7        30.36R
$$

VAZ088>098-162300-
SOUTHEAST VIRGINIA

CITY           SKY/WX    TMP DP  RH WIND       PRES   REMARKS
NORFOLK        SUNNY     47  29  49 N16       30.41R
VIRGINIA BEACH MOSUNNY   46  27  47 NE9       30.41R
NORFOLK NAVAL  MOSUNNY   48  28  46 N20       30.43R
WEST POINT*    SUNNY     53  10  17 NE7       30.43R
NEWPORT NEWS   SUNNY     50  23  34 NE15G21   30.42R
LANGLEY AFB    SUNNY     47  26  44 NE14      30.43R
FORT EUSTIS    SUNNY     50  27  40 NE10G17   30.40R
WILLIAMSBURG*  SUNNY     55  27  33 NE6       30.42R
FRANKLIN*      SUNNY     52  28  40 E9        30.41R
WAKEFIELD      SUNNY     53  21  28 NE7       30.40R
$$

VAZ020-022-025-037-045-162300-
WESTERN AND SOUTHWEST VIRGINIA

CITY           SKY/WX    TMP DP  RH WIND       PRES   REMARKS
STAUNTON*      SUNNY     48  18  29 CALM      30.39F
HOT SPRINGS VA SUNNY     41  19  42 E3        30.34S
LYNCHBURG      SUNNY     54  18  24 E7        30.39R
DANVILLE       SUNNY     54  22  28 NE9       30.38R
MARTINSVILLE   SUNNY     55  22  28 NE7       30.38S
ROANOKE        SUNNY     51  22  31 S7        30.37R
BLACKSBURG     SUNNY     52  25  35 E5        30.35R
DUBLIN*        SUNNY     50  20  30 E8        30.32S
MARION*        SUNNY     51  18  27 E7        30.30S
HILLSVILLE*    SUNNY     50   7  17 S5        30.32R
RICHLANDS*     CLEAR     56  16  21 SE8       30.26R
WISE*          SUNNY     55  18  22 E6        30.25F
ABINGDON*      SUNNY     59  18  20 E9        30.24S
$$

MDZ021>025-VAZ099-100-162300-
SOUTHERN MARYLAND AND THE DELMARVA PENINSULA

CITY           SKY/WX    TMP DP  RH WIND       PRES   REMARKS
PATUXENT RIVER MOSUNNY   46  21  37 N13       30.43R
BAY BRIDGE APT SUNNY     46  19  34 N12       30.45R
LEONARDTOWN    NOT AVBL
DOVER          SUNNY     47  20  33 N14       30.39R
GEORGETOWN     SUNNY     47  20  34 NE12      30.43R
EASTON         SUNNY     48  25  40 N8        30.47R
CAMBRIDGE      SUNNY     48  21  34 N12       30.43R
SALISBURY      SUNNY     50  24  36 NE9       30.41R
OCEAN CITY     SUNNY     45  27  49 E10       30.42R
WALLOPS ISLAND SUNNY     49  28  44 E18G24    30.41R
ACCOMACK*      NOT AVBL
$$

NCZ012>017-030>032-162300-
EASTERN NORTH CAROLINA

CITY           SKY/WX    TMP DP  RH WIND       PRES   REMARKS
ELIZABETH CITY SUNNY     49  30  48 NE15      30.40R
AHOSKIE*       SUNNY     51  24  35 NE6       30.39R
EDENTON*       SUNNY     50  28  43 NE13      30.40R
CURRITUCK*     SUNNY     48  26  43 NE14G21   30.41R
KILL DEVIL HLS SUNNY     44  28  52 NE12G22   30.39R
MANTEO         SUNNY     44  27  51 NE17G29   30.40R
CAPE HATTERAS  PTSUNNY   45  34  65 NE15G28   30.37R
GOLDSBORO      SUNNY     54  27  35 NE9G20    30.35R
WASHINGTON     SUNNY     53  19  27 NE12      30.37R
GREENVILLE     SUNNY     54  27  35 N8        30.37R
NEW BERN       SUNNY     53  29  39 E15       30.37R
WILMINGTON     SUNNY     55  32  41 E10       30.34R
$$

VAZ048-162300-
ELSEWHERE

CITY           SKY/WX    TMP DP  RH WIND       PRES   REMARKS
HARRISBURG PA  MOSUNNY   47  14  26 N5        30.44S
BALTIMORE      MOSUNNY   47  16  29 N9        30.44R
ANNAPOLIS      SUNNY     47  22  37 NE10      30.44R
ANDREWS AFB    SUNNY     47  15  28 NE7       30.43R
WILMINGTON DE  SUNNY     49  19  30 N9        30.44S
PHILADELPHIA   MOSUNNY   48  16  27 N13G21    30.44S
WILDWOOD NJ*   SUNNY     45  27  49 SE10      30.44R
ATLANTIC CITY  SUNNY     47  26  44 SE10      30.42R
HENDERSON NC   SUNNY     52  20  28 N6        30.37R
GREENSBORO     SUNNY     53  23  31 E8        30.34R
ROCKY MOUNT      N/A    N/A N/A N/A MISG      30.38R
FAYETTEVILLE   SUNNY     55  23  28 E9        30.34R
CHARLOTTE      SUNNY     57  26  30 N8        30.32S
$$

VAZ100-162300-
MARINE

STATION/POSITION TIME  TEMP    WIND        PRES    WAVE   SWELL
                       AIR SEA DIR/SP/G            HT/PER HT/PER
                 (UTC) (F)     (DEG/KT/KT) (MB)    (FT/S) (FT/S)
44066 TX TWR #4  2200   40 45  360/ 16/ 19 1029.7R   7/ 6   3/10
CAPE MAY NJ      2200   44 54  120/  8/ 11 1029.8R
LEWES DE         2200   45 51  350/ 13/ 16 1029.4R
15NM E FENWICK I 2200   42 45              1030.3R   4/11
OCEAN-CITY-INLET 2200   44 53   90/  9/ 13 1029.7R
WACHAPREAGUE VA  2200   45 57   60/ 11/ 19 1029.8R
THOMAS POINT MD  2200   45 52   20/ 14/ 16 1031.3R
GOOSES REEF MD   2200   45      40/ 16/ 17 1032.0S
COVE POINT MD    2200   44      30/ 12/ 16 1030.5R
SOLOMONS ISLAND  2200      54                N/A
BISHOPS HEAD MD  2200   47 55   20/  8/ 13 1029.8R
PINEY POINT MD   2200           40/ 10/ 12   N/A
POTOMAC MD       2200   45      10/ 14/ 19 1029.8R
CAMBRIDGE MD     2200   46 56   20/ 12/ 16 1030.0R
LEWISETTA VA     2200   46 51   30/  8/ 13 1030.3R
RAPPAHANNOCK LGT 2200          350/ 18/ 21 1030.1R
STINGRAY PT      2200   45      10/ 16/ 17 1030.1S
YORK RVR RNG VA  2200   45      30/ 13/ 18 1029.3R
YORKTOWN VA      2200   47 56   40/ 15/ 17 1029.8R
JAMESTOWN VA     2200   50      50/  8/ 12   N/A
DOMINION TERM VA 2200   47      50/ 11/ 16 1030.0R
KIPTOPEKE VA     2200      56   70/  7/ 13   N/A
CHES BAY BRIDGE  2200   44 52   60/ 11/ 12 1029.9R
CAPE HENRY VA    2200           50/ 12/ 15   N/A
CHESAPEAKE LGHT  2100   41      50/ 15/ 17 1029.9R
WILLOUBY STN VA  2200   44      20/ 15/ 18 1029.1R
S CRANEY ISL VA  2200          350/ 13/ 16 1030.0R
CAPE HENRY BUOY  2200      46                N/A     5/ 8   2/11
1ST LANDING BUOY 2200      46                N/A     5/10   3/10
64NM E OF VA BCH 2200   44 65   30/ 23/ 29 1028.3S  10/ 9   7/ 9
DUCK PIER NC     2200   42 48   30/ 21/ 24 1028.5R
44100 DUCK FRF   2200      47                N/A     8/ 8   2/11
44056 DUCK FRF   2200      47                N/A     7/ 8   2/12
OREGON INLET NC  2200   43 55   10/ 18/ 24 1028.9R
HATTERAS NC      2200   45 59   30/ 15/ 23 1028.5R
CAPE LOOKOUT NC  2200   48      50/ 23/ 26 1028.0R
FRYING PAN SHLS  2200   53 64   50/ 21/ 27 1026.1R   7/ 6
$$



USA.gov is the U.S. government's official web portal to all federal, state and local government web resources and services.